Spokane Felts, WA
on Monday, February 4, 2013

Monday
Previous Day Next Day
Daily Summary
 ActualAverageRecord
Temperature
Mean Temperature °F 33°F  
Max Temperature 43°F 39°F 55°F (1998)
Min Temperature 30°F 27°F 7°F (2014)
Degree Days
Heating Degree Days 28 32  
Month to date heating degree days 123 128  
Since 1 July heating degree days 3424 3840  
Cooling Degree Days 0 0  
Month to date cooling degree days 0 0  
Year to date cooling degree days 0 0  
Moisture
Dew Point 31°F   
Average Humidity 81    
Maximum Humidity 92    
Minimum Humidity 70    
Precipitation
Precipitation 0.00 in 0.07 in 0.30 in (2001)
Month to date precipitation 0.00 0.26  
Year to date precipitation 1.63 2.21  
Wind
Wind Speed 4 mph   
Max Wind Speed 15 mph   
Max Gust Speed 18 mph   
Visibility 6 miles   
Events Fog   

Key: T is trace of precipitation, MM is missing value
Source: NWS Daily Summary
Time(PST)TemperatureDew PointHumidity Pressure Visibility Wind DirectionWind SpeedGust SpeedPrecipitationEvents Conditions
12:02 AM 35.6°F 30.2°F 81% 30.10 in 6.0 miles West 3.5 mph - N/A   Haze
12:26 AM 35.6°F 32.0°F 87% 30.10 in 6.0 miles WSW 3.5 mph - N/A   Overcast
12:35 AM 35.6°F 32.0°F 87% 30.10 in 6.0 miles SSW 8.1 mph - N/A   Overcast
12:53 AM 36.0°F 32.0°F 86% 30.13 in 7.0 miles WSW 4.6 mph - N/A   Overcast
1:08 AM 35.6°F 32.0°F 87% 30.09 in 7.0 miles West 5.8 mph - N/A   Overcast
2:53 AM 35.6°F 30.2°F 81% 30.09 in 10.0 miles WSW 4.6 mph - N/A   Overcast
3:53 AM 36.0°F 30.9°F 82% 30.13 in 10.0 miles SW 9.2 mph - N/A   Overcast
4:46 AM 35.6°F 30.2°F 81% 30.09 in 10.0 miles West 4.6 mph - N/A   Overcast
4:53 AM 36.0°F 30.0°F 79% 30.13 in 10.0 miles WSW 4.6 mph - N/A   Overcast
5:53 AM 36.0°F 30.9°F 82% 30.13 in 9.0 miles West 3.5 mph - N/A   Overcast
6:53 AM 35.1°F 30.9°F 85% 30.12 in 3.0 miles SSW 3.5 mph - N/A   Overcast
7:53 AM 35.1°F 30.9°F 85% 30.14 in 5.0 miles WSW 3.5 mph - N/A   Overcast
8:53 AM 36.0°F 30.9°F 82% 30.14 in 6.0 miles SW 4.6 mph - N/A   Haze
9:53 AM 37.0°F 32.0°F 82% 30.15 in 6.0 miles SW 8.1 mph - N/A   Haze
10:53 AM 39.0°F 32.0°F 76% 30.15 in 10.0 miles SSW 12.7 mph - N/A   Mostly Cloudy
11:00 AM 39.2°F 33.8°F 81% 30.11 in 10.0 miles SSW 9.2 mph - N/A   Overcast
11:19 AM 41.0°F 33.8°F 76% 30.10 in 10.0 miles SSW 6.9 mph - N/A   Scattered Clouds
11:26 AM 41.0°F 33.8°F 76% 30.09 in 10.0 miles SSW 8.1 mph - N/A   Mostly Cloudy
11:53 AM 42.1°F 33.1°F 70% 30.12 in 10.0 miles SW 9.2 mph - N/A   Scattered Clouds
12:53 PM 41.0°F 32.0°F 70% 30.09 in 10.0 miles SW 9.2 mph - N/A   Scattered Clouds
1:15 PM 42.8°F 33.8°F 70% 30.07 in 10.0 miles WSW 8.1 mph - N/A   Mostly Cloudy
1:53 PM 41.0°F 33.1°F 73% 30.09 in 10.0 miles Variable 4.6 mph - N/A   Mostly Cloudy
2:00 PM 42.8°F 33.8°F 70% 30.06 in 10.0 miles WSW 4.6 mph - N/A   Scattered Clouds
2:53 PM 42.1°F 33.1°F 70% 30.09 in 10.0 miles Calm Calm - N/A   Scattered Clouds
3:53 PM 41.0°F 34.0°F 76% 30.08 in 10.0 miles Calm Calm - N/A   Partly Cloudy
4:53 PM 37.0°F 32.0°F 82% 30.06 in 10.0 miles NE 3.5 mph - N/A   Clear
5:53 PM 34.0°F 30.9°F 89% 30.06 in 10.0 miles Calm Calm - N/A   Clear
6:53 PM 33.1°F 30.0°F 89% 30.06 in 6.0 miles Calm Calm - N/A   Clear
7:53 PM 33.1°F 30.0°F 89% 30.06 in 5.0 miles Calm Calm - N/A   Clear
8:01 PM 32.0°F 28.4°F 87% 30.02 in 1.5 miles Calm Calm - N/A   Clear
8:08 PM 32.0°F 28.4°F 87% 30.02 in 0.5 miles Calm Calm - N/A Fog Fog
8:20 PM 30.2°F 28.4°F 93% 30.02 in 1.0 miles Calm Calm - N/A   Clear
8:26 PM 30.2°F 28.4°F 93% 30.02 in 3.0 miles Calm Calm - N/A   Clear
8:31 PM 32.0°F 28.4°F 87% 30.02 in 1.8 miles Calm Calm - N/A   Partly Cloudy
8:35 PM 30.2°F 28.4°F 93% 30.02 in 0.8 miles Calm Calm - N/A   Mist
8:43 PM 30.2°F 28.4°F 93% 30.02 in 0.2 miles Calm Calm - N/A Fog Light Freezing Fog
8:53 PM 30.9°F 28.0°F 89% 30.06 in 0.5 miles Calm Calm - N/A Fog Light Freezing Fog
9:25 PM 30.2°F 28.4°F 93% 30.01 in 1.0 miles Calm Calm - N/A   Mist
9:33 PM 30.2°F 28.4°F 93% 30.00 in 1.8 miles Calm Calm - N/A   Scattered Clouds
9:43 PM 32.0°F 28.4°F 87% 30.00 in 2.5 miles Calm Calm - N/A   Partly Cloudy
9:53 PM 32.0°F 28.9°F 88% 30.04 in 2.5 miles Calm Calm - N/A   Scattered Clouds
10:01 PM 32.0°F 30.2°F 93% 30.00 in 3.0 miles Calm Calm - N/A   Partly Cloudy
10:14 PM 32.0°F 28.4°F 87% 30.00 in 3.0 miles Calm Calm - N/A   Mostly Cloudy
10:23 PM 32.0°F 28.4°F 87% 29.99 in 2.5 miles Calm Calm - N/A   Mostly Cloudy
10:34 PM 33.8°F 30.2°F 87% 29.99 in 3.0 miles Calm Calm - N/A   Mostly Cloudy
10:41 PM 33.8°F 30.2°F 87% 29.99 in 3.0 miles Calm Calm - N/A   Partly Cloudy
10:53 PM 32.0°F 28.9°F 88% 30.03 in 4.0 miles Calm Calm - N/A   Partly Cloudy
11:53 PM 33.1°F 30.0°F 89% 30.01 in 4.0 miles Calm Calm - N/A   Overcast
Moon Phase
Feb. 04 Feb. 10 Feb. 17 Feb. 25 Mar. 04
Sunrise:07:11 AM (PST) Moon Rise:01:58 AM (PST)2/4
Sunset:04:55 PM (PST) Moon Set:11:16 AM (PST)2/4

Copyright © 2014 The Weather Underground, Inc.